Location: Newark
(43.6583°N, 1.6617°E)
Time: 00:56:56
(UTC+00:00)

Courier 1B Rocket - Visible Passes

Search period start: 22 August 2019 00:00
Search period end: 01 September 2019 00:00
Orbit: 920 x 1202 km, 28.3° (Epoch: 20 August)

Date Brightness Start Highest point End Pass type
(mag) Time Alt. Az. Time Alt. Az. Time Alt. Az.
22 Aug 7.0 02:33:24 15° SSE 02:33:42 15° SSE 02:37:38 10° SE visible
22 Aug 6.7 04:20:24 10° SW 04:26:12 24° S 04:32:08 10° ESE visible
23 Aug 6.7 03:22:27 17° SSW 03:25:18 21° SSE 03:30:50 10° ESE visible
24 Aug 6.9 02:25:09 18° SSE 02:25:09 18° SSE 02:29:17 10° ESE visible
24 Aug 6.6 04:11:30 11° SW 04:17:02 25° S 04:23:02 10° SE visible
25 Aug 6.5 03:14:13 21° SSW 03:16:07 23° S 03:21:53 10° SE visible
26 Aug 6.8 02:16:58 19° SSE 02:16:58 19° SSE 02:20:32 10° ESE visible
26 Aug 6.6 04:03:19 14° SW 04:07:52 24° S 04:13:45 10° SE visible
27 Aug 6.4 03:06:07 23° S 03:06:58 24° S 03:12:44 10° SE visible
28 Aug 6.9 02:08:57 18° SE 02:08:57 18° SE 02:11:34 10° SE visible
28 Aug 6.6 03:55:19 16° SW 03:58:43 22° S 04:04:16 10° SE visible
29 Aug 6.5 02:58:14 23° S 02:58:14 23° S 03:03:26 10° SE visible
30 Aug 7.2 02:01:11 14° SE 02:01:11 14° SE 02:02:26 10° SE visible
30 Aug 6.6 03:47:34 17° SSW 03:49:35 19° SSW 03:54:31 10° SSE visible
31 Aug 6.7 02:50:37 19° SSE 02:50:37 19° SSE 02:53:55 10° SE visible
31 Aug 7.0 04:38:34 10° SW 04:41:13 12° SSW 04:43:55 10° S visible
